Time,TemperatureF,DewpointF,PressureIn,WindDirection,WindDirectionDegrees,WindSpeedMPH,WindSpeedGustMPH,Humidity,HourlyPrecipIn,Conditions,Clouds,dailyrainin,SoftwareType,DateUTC
2013-08-03 00:01:00,78.4,73.9,30.04,NE,45,0.0,0.0,86,0.00,,,0.00,meteohub,2013-08-03 04:01:00,
2013-08-03 00:02:00,78.4,73.9,30.04,NE,45,0.0,0.0,86,0.00,,,0.00,meteohub,2013-08-03 04:02:00,
2013-08-03 00:03:00,78.4,73.9,30.03,NE,45,0.0,0.0,86,0.00,,,0.00,meteohub,2013-08-03 04:03:00,
2013-08-03 00:08:00,78.4,73.9,30.04,NE,45,0.0,0.0,86,0.00,,,0.00,meteohub,2013-08-03 04:08:00,
2013-08-03 00:13:00,78.3,73.8,30.04,NE,45,0.0,0.0,86,0.00,,,0.00,meteohub,2013-08-03 04:13:00,
2013-08-03 00:18:00,78.3,74.1,30.04,NW,315,0.0,0.0,87,0.00,,,0.00,meteohub,2013-08-03 04:18:00,
2013-08-03 00:23:00,78.1,73.9,30.04,NW,315,0.0,0.0,87,0.00,,,0.00,meteohub,2013-08-03 04:23:00,
2013-08-03 00:28:00,78.1,73.9,30.04,NW,315,0.0,0.0,87,0.00,,,0.00,meteohub,2013-08-03 04:28:00,
2013-08-03 00:33:00,78.1,73.9,30.04,NW,315,0.0,0.0,87,0.00,,,0.00,meteohub,2013-08-03 04:33:00,
2013-08-03 00:38:00,77.7,73.6,30.04,NW,315,0.0,0.0,87,0.00,,,0.00,meteohub,2013-08-03 04:38:00,
2013-08-03 00:43:00,77.7,73.6,30.04,NW,315,0.0,0.0,87,0.00,,,0.00,meteohub,2013-08-03 04:43:00,
2013-08-03 00:48:00,77.7,73.9,30.04,NW,315,0.0,0.0,88,0.00,,,0.00,meteohub,2013-08-03 04:48:00,
2013-08-03 00:53:00,77.7,73.9,30.04,NW,315,0.0,0.0,88,0.00,,,0.00,meteohub,2013-08-03 04:53:00,
2013-08-03 00:58:00,77.5,73.8,30.03,NW,315,0.0,0.0,88,0.00,,,0.00,meteohub,2013-08-03 04:58:00,
2013-08-03 01:03:00,77.5,73.8,30.04,NW,315,0.0,0.0,88,0.00,,,0.00,meteohub,2013-08-03 05:03:00,
2013-08-03 01:08:00,77.5,74.1,30.03,NW,315,0.0,0.0,89,0.00,,,0.00,meteohub,2013-08-03 05:08:00,
2013-08-03 01:13:00,77.4,73.9,30.03,NW,315,0.0,0.0,89,0.00,,,0.00,meteohub,2013-08-03 05:13:00,
2013-08-03 01:18:00,77.4,73.9,30.04,NW,315,0.0,0.0,89,0.00,,,0.00,meteohub,2013-08-03 05:18:00,
2013-08-03 01:23:00,77.2,73.8,30.04,West,270,0.0,0.0,89,0.00,,,0.00,meteohub,2013-08-03 05:23:00,
2013-08-03 01:28:00,77.2,73.9,30.04,West,270,0.0,0.0,90,0.00,,,0.00,meteohub,2013-08-03 05:28:00,
2013-08-03 01:34:00,77.0,73.8,30.04,South,180,0.0,0.0,90,0.00,,,0.00,meteohub,2013-08-03 05:34:00,
2013-08-03 01:39:00,77.0,73.8,30.04,South,180,0.0,0.0,90,0.00,,,0.00,meteohub,2013-08-03 05:39:00,
2013-08-03 01:44:00,77.0,73.8,30.04,South,180,0.0,0.0,90,0.00,,,0.00,meteohub,2013-08-03 05:44:00,
2013-08-03 01:49:00,76.8,74.3,30.03,South,180,0.0,0.0,92,0.00,,,0.00,meteohub,2013-08-03 05:49:00,
2013-08-03 01:54:00,76.8,74.3,30.03,SW,225,0.0,0.0,92,0.00,,,0.00,meteohub,2013-08-03 05:54:00,
2013-08-03 01:59:00,77.0,74.1,30.03,SW,225,0.0,0.0,91,0.00,,,0.00,meteohub,2013-08-03 05:59:00,
2013-08-03 02:04:00,77.0,74.1,30.04,South,180,0.0,0.0,91,0.00,,,0.00,meteohub,2013-08-03 06:04:00,
2013-08-03 02:09:00,77.0,74.5,30.03,SW,225,0.0,0.0,92,0.00,,,0.00,meteohub,2013-08-03 06:09:00,
2013-08-03 02:14:00,77.0,74.5,30.03,SW,225,0.0,1.0,92,0.00,,,0.00,meteohub,2013-08-03 06:14:00,
2013-08-03 02:20:00,77.2,74.7,30.03,SW,225,2.0,2.0,92,0.00,,,0.00,meteohub,2013-08-03 06:20:00,
2013-08-03 02:25:00,77.2,74.7,30.03,SW,225,0.0,1.0,92,0.00,,,0.00,meteohub,2013-08-03 06:25:00,
2013-08-03 02:30:00,77.2,74.7,30.03,SW,225,0.0,2.0,92,0.00,,,0.00,meteohub,2013-08-03 06:30:00,
2013-08-03 02:35:00,77.2,74.7,30.03,SE,135,0.0,2.0,92,0.00,,,0.00,meteohub,2013-08-03 06:35:00,
2013-08-03 02:40:00,77.2,74.7,30.03,SW,225,0.0,2.0,92,0.00,,,0.00,meteohub,2013-08-03 06:40:00,
2013-08-03 02:45:00,77.2,74.7,30.02,SW,225,0.0,2.0,92,0.00,,,0.00,meteohub,2013-08-03 06:45:00,
2013-08-03 02:50:00,77.2,74.7,30.02,SW,225,0.0,2.0,92,0.00,,,0.00,meteohub,2013-08-03 06:50:00,
2013-08-03 02:55:00,77.2,74.7,30.02,South,180,1.0,1.0,92,0.00,,,0.00,meteohub,2013-08-03 06:55:00,
2013-08-03 03:00:00,77.0,74.5,30.02,South,180,2.0,2.0,92,0.00,,,0.00,meteohub,2013-08-03 07:00:00,
2013-08-03 03:05:00,77.0,74.5,30.02,SW,225,2.0,4.0,92,0.00,,,0.00,meteohub,2013-08-03 07:05:00,
2013-08-03 03:11:00,77.0,74.5,30.02,SW,225,2.0,4.0,92,0.00,,,0.00,meteohub,2013-08-03 07:11:00,
2013-08-03 03:16:00,77.0,74.5,30.02,SW,225,1.0,4.0,92,0.00,,,0.00,meteohub,2013-08-03 07:16:00,
2013-08-03 03:21:00,76.8,74.7,30.01,South,180,1.0,2.0,93,0.00,,,0.00,meteohub,2013-08-03 07:21:00,
2013-08-03 03:26:00,76.8,74.7,30.01,West,270,0.0,2.0,93,0.00,,,0.00,meteohub,2013-08-03 07:26:00,
2013-08-03 03:31:00,76.6,74.5,30.01,South,180,0.0,2.0,93,0.00,,,0.00,meteohub,2013-08-03 07:31:00,
2013-08-03 03:36:00,76.6,74.5,30.01,SW,225,0.0,2.0,93,0.00,,,0.00,meteohub,2013-08-03 07:36:00,
2013-08-03 03:41:00,76.6,74.5,30.01,South,180,0.0,2.0,93,0.00,,,0.00,meteohub,2013-08-03 07:41:00,
2013-08-03 03:46:00,76.5,74.7,30.01,West,270,0.0,0.0,94,0.00,,,0.00,meteohub,2013-08-03 07:46:00,
2013-08-03 03:51:00,76.5,74.7,30.01,West,270,0.0,0.0,94,0.00,,,0.00,meteohub,2013-08-03 07:51:00,
2013-08-03 03:56:00,76.5,74.7,30.01,West,270,0.0,0.0,94,0.00,,,0.00,meteohub,2013-08-03 07:56:00,
2013-08-03 04:01:00,76.3,74.5,30.01,SW,225,2.0,0.0,94,0.00,,,0.00,meteohub,2013-08-03 08:01:00,
2013-08-03 04:06:00,76.3,74.5,30.01,South,180,0.0,2.0,94,0.00,,,0.00,meteohub,2013-08-03 08:06:00,
2013-08-03 04:11:00,76.3,74.5,30.01,SE,135,2.0,2.0,94,0.00,,,0.00,meteohub,2013-08-03 08:11:00,
2013-08-03 04:16:00,76.3,74.5,30.01,South,180,1.0,2.0,94,0.00,,,0.00,meteohub,2013-08-03 08:16:00,
2013-08-03 04:22:00,76.3,74.5,30.01,South,180,0.0,2.0,94,0.00,,,0.00,meteohub,2013-08-03 08:22:00,
2013-08-03 04:27:00,76.3,74.7,30.01,SW,225,0.0,2.0,95,0.00,,,0.00,meteohub,2013-08-03 08:27:00,
2013-08-03 04:32:00,76.3,74.7,30.01,South,180,0.0,2.0,95,0.00,,,0.00,meteohub,2013-08-03 08:32:00,
2013-08-03 04:38:00,76.3,74.7,30.01,South,180,0.0,2.0,95,0.00,,,0.00,meteohub,2013-08-03 08:38:00,
2013-08-03 04:42:00,76.3,74.7,30.01,South,180,0.0,2.0,95,0.00,,,0.00,meteohub,2013-08-03 08:42:00,
2013-08-03 04:47:00,76.1,74.5,30.01,South,180,0.0,2.0,95,0.00,,,0.00,meteohub,2013-08-03 08:47:00,
2013-08-03 04:53:00,76.1,74.5,30.01,South,180,0.0,0.0,95,0.00,,,0.00,meteohub,2013-08-03 08:53:00,
2013-08-03 04:58:00,75.9,74.3,30.01,South,180,0.0,0.0,95,0.00,,,0.00,meteohub,2013-08-03 08:58:00,
2013-08-03 05:03:00,75.9,74.3,30.01,West,270,1.0,0.0,95,0.00,,,0.00,meteohub,2013-08-03 09:03:00,
2013-08-03 05:08:00,75.9,74.3,30.01,West,270,0.0,1.0,95,0.00,,,0.00,meteohub,2013-08-03 09:08:00,
2013-08-03 05:13:00,75.9,74.3,30.01,West,270,0.0,1.0,95,0.00,,,0.00,meteohub,2013-08-03 09:13:00,
2013-08-03 05:18:00,76.1,74.5,30.01,West,270,1.0,1.0,95,0.00,,,0.00,meteohub,2013-08-03 09:18:00,
2013-08-03 05:23:00,76.1,74.5,30.02,SW,225,0.0,1.0,95,0.00,,,0.00,meteohub,2013-08-03 09:23:00,
2013-08-03 05:28:00,76.3,75.0,30.02,SW,225,0.0,1.0,96,0.00,,,0.00,meteohub,2013-08-03 09:28:00,
2013-08-03 05:33:00,76.3,75.0,30.02,West,270,0.0,1.0,96,0.00,,,0.00,meteohub,2013-08-03 09:33:00,
2013-08-03 05:38:00,76.3,75.0,30.02,West,270,0.0,0.0,96,0.00,,,0.00,meteohub,2013-08-03 09:38:00,
2013-08-03 05:43:00,76.3,75.0,30.02,West,270,0.0,0.0,96,0.00,,,0.00,meteohub,2013-08-03 09:43:00,
2013-08-03 05:49:00,76.1,74.8,30.02,West,270,0.0,0.0,96,0.00,,,0.00,meteohub,2013-08-03 09:49:00,
2013-08-03 05:54:00,76.3,75.0,30.02,West,270,1.0,0.0,96,0.00,,,0.00,meteohub,2013-08-03 09:54:00,
2013-08-03 05:59:00,76.5,75.2,30.02,West,270,0.0,2.0,96,0.00,,,0.00,meteohub,2013-08-03 09:59:00,
2013-08-03 06:04:00,76.5,75.2,30.02,West,270,2.0,2.0,96,0.00,,,0.00,meteohub,2013-08-03 10:04:00,
2013-08-03 06:09:00,76.6,75.4,30.02,West,270,2.0,2.0,96,0.00,,,0.00,meteohub,2013-08-03 10:09:00,
2013-08-03 06:14:00,76.6,75.4,30.03,West,270,0.0,2.0,96,0.00,,,0.00,meteohub,2013-08-03 10:14:00,
2013-08-03 06:19:00,76.6,75.4,30.03,SW,225,0.0,2.0,96,0.00,,,0.00,meteohub,2013-08-03 10:19:00,
2013-08-03 06:24:00,76.8,75.6,30.04,West,270,0.0,2.0,96,0.00,,,0.00,meteohub,2013-08-03 10:24:00,
2013-08-03 06:29:00,76.8,75.6,30.04,West,270,0.0,1.0,96,0.00,,,0.00,meteohub,2013-08-03 10:29:00,
2013-08-03 06:34:00,76.6,75.4,30.04,South,180,0.0,0.0,96,0.00,,,0.00,meteohub,2013-08-03 10:34:00,
2013-08-03 06:39:00,76.6,75.4,30.04,South,180,2.0,0.0,96,0.00,,,0.00,meteohub,2013-08-03 10:39:00,
2013-08-03 06:44:00,76.5,75.2,30.04,South,180,0.0,1.0,96,0.00,,,0.00,meteohub,2013-08-03 10:44:00,
2013-08-03 06:49:00,76.5,75.2,30.04,SW,225,2.0,2.0,96,0.00,,,0.00,meteohub,2013-08-03 10:49:00,
2013-08-03 06:54:00,76.5,75.2,30.05,South,180,2.0,2.0,96,0.00,,,0.00,meteohub,2013-08-03 10:54:00,
2013-08-03 06:59:00,76.3,75.0,30.05,South,180,0.0,2.0,96,0.00,,,0.00,meteohub,2013-08-03 10:59:00,
2013-08-03 07:05:00,76.1,74.8,30.05,South,180,0.0,2.0,96,0.00,,,0.00,meteohub,2013-08-03 11:05:00,
2013-08-03 07:10:00,76.1,74.8,30.05,West,270,0.0,2.0,96,0.00,,,0.00,meteohub,2013-08-03 11:10:00,
2013-08-03 07:15:00,76.1,74.8,30.05,NW,315,0.0,0.0,96,0.00,,,0.00,meteohub,2013-08-03 11:15:00,
2013-08-03 07:20:00,76.3,75.0,30.05,NW,315,0.0,0.0,96,0.00,,,0.00,meteohub,2013-08-03 11:20:00,
2013-08-03 07:25:00,76.5,75.2,30.05,SW,225,0.0,0.0,96,0.00,,,0.00,meteohub,2013-08-03 11:25:00,
2013-08-03 07:30:00,76.6,75.4,30.06,SE,135,0.0,0.0,96,0.00,,,0.00,meteohub,2013-08-03 11:30:00,
2013-08-03 07:36:00,76.6,75.4,30.06,South,180,0.0,0.0,96,0.00,,,0.00,meteohub,2013-08-03 11:36:00,
2013-08-03 07:41:00,77.0,75.4,30.06,South,180,0.0,0.0,95,0.00,,,0.00,meteohub,2013-08-03 11:41:00,
2013-08-03 07:46:00,77.0,75.4,30.06,South,180,0.0,1.0,95,0.00,,,0.00,meteohub,2013-08-03 11:46:00,
2013-08-03 07:51:00,77.2,75.6,30.06,South,180,0.0,1.0,95,0.00,,,0.00,meteohub,2013-08-03 11:51:00,
2013-08-03 07:56:00,77.4,75.7,30.05,NW,315,1.0,1.0,95,0.00,,,0.00,meteohub,2013-08-03 11:56:00,
2013-08-03 08:01:00,77.5,75.9,30.06,SW,225,0.0,1.0,95,0.00,,,0.00,meteohub,2013-08-03 12:01:00,
2013-08-03 08:06:00,77.9,76.3,30.06,North,0,1.0,1.0,95,0.00,,,0.00,meteohub,2013-08-03 12:06:00,
2013-08-03 08:11:00,78.3,76.6,30.06,West,270,2.0,2.0,95,0.00,,,0.00,meteohub,2013-08-03 12:11:00,
2013-08-03 08:16:00,78.6,77.0,30.06,North,0,0.0,2.0,95,0.00,,,0.00,meteohub,2013-08-03 12:16:00,
2013-08-03 08:21:00,79.0,77.2,30.06,North,0,0.0,2.0,94,0.00,,,0.00,meteohub,2013-08-03 12:21:00,
2013-08-03 08:27:00,79.3,77.5,30.06,West,270,2.0,2.0,94,0.00,,,0.00,meteohub,2013-08-03 12:27:00,
2013-08-03 08:32:00,79.9,77.7,30.06,SW,225,2.0,2.0,93,0.00,,,0.00,meteohub,2013-08-03 12:32:00,
2013-08-03 08:37:00,80.2,78.1,30.06,North,0,2.0,3.0,93,0.00,,,0.00,meteohub,2013-08-03 12:37:00,
2013-08-03 08:41:00,81.0,78.1,30.06,NW,315,3.0,3.0,91,0.00,,,0.00,meteohub,2013-08-03 12:41:00,
2013-08-03 08:47:00,81.1,77.9,30.06,South,180,3.0,3.0,90,0.00,,,0.00,meteohub,2013-08-03 12:47:00,
2013-08-03 08:52:00,81.5,77.5,30.06,NE,45,2.0,4.0,88,0.00,,,0.00,meteohub,2013-08-03 12:52:00,
2013-08-03 08:57:00,81.9,77.5,30.06,West,270,3.0,5.0,87,0.00,,,0.00,meteohub,2013-08-03 12:57:00,
2013-08-03 09:02:00,82.2,77.5,30.06,West,270,4.0,5.0,86,0.00,,,0.00,meteohub,2013-08-03 13:02:00,
2013-08-03 09:07:00,82.4,77.7,30.06,SW,225,2.0,5.0,86,0.00,,,0.00,meteohub,2013-08-03 13:07:00,
2013-08-03 09:12:00,82.4,77.4,30.06,West,270,3.0,4.0,85,0.00,,,0.00,meteohub,2013-08-03 13:12:00,
2013-08-03 09:17:00,82.2,76.8,30.06,NW,315,2.0,4.0,84,0.00,,,0.00,meteohub,2013-08-03 13:17:00,
2013-08-03 09:23:00,82.4,77.4,30.06,SW,225,4.0,4.0,85,0.00,,,0.00,meteohub,2013-08-03 13:23:00,
2013-08-03 09:28:00,82.9,77.9,30.06,SW,225,2.0,4.0,85,0.00,,,0.00,meteohub,2013-08-03 13:28:00,
2013-08-03 09:33:00,83.1,77.0,30.06,NW,315,2.0,4.0,82,0.00,,,0.00,meteohub,2013-08-03 13:33:00,
2013-08-03 09:38:00,83.3,77.5,30.06,SW,225,2.0,6.0,83,0.00,,,0.00,meteohub,2013-08-03 13:38:00,
2013-08-03 09:43:00,83.7,77.9,30.07,West,270,4.0,6.0,83,0.00,,,0.00,meteohub,2013-08-03 13:43:00,
2013-08-03 09:48:00,84.0,77.2,30.07,West,270,0.0,4.0,80,0.00,,,0.00,meteohub,2013-08-03 13:48:00,
2013-08-03 09:53:00,84.6,77.4,30.07,West,270,0.0,4.0,79,0.00,,,0.00,meteohub,2013-08-03 13:53:00,
2013-08-03 09:58:00,85.3,77.7,30.07,NE,45,4.0,4.0,78,0.00,,,0.00,meteohub,2013-08-03 13:58:00,
2013-08-03 10:03:00,86.0,77.5,30.07,SW,225,2.0,4.0,76,0.00,,,0.00,meteohub,2013-08-03 14:03:00,
2013-08-03 10:08:00,86.4,77.9,30.07,West,270,4.0,4.0,76,0.00,,,0.00,meteohub,2013-08-03 14:08:00,
2013-08-03 10:13:00,86.4,77.5,30.07,South,180,2.0,4.0,75,0.00,,,0.00,meteohub,2013-08-03 14:13:00,
2013-08-03 10:19:00,86.5,77.7,30.07,NE,45,2.0,6.0,75,0.00,,,0.00,meteohub,2013-08-03 14:19:00,
2013-08-03 10:24:00,86.7,77.0,30.07,SW,225,2.0,6.0,73,0.00,,,0.00,meteohub,2013-08-03 14:24:00,
2013-08-03 10:29:00,86.5,77.2,30.07,West,270,2.0,4.0,74,0.00,,,0.00,meteohub,2013-08-03 14:29:00,
2013-08-03 10:34:00,86.5,77.2,30.07,West,270,4.0,4.0,74,0.00,,,0.00,meteohub,2013-08-03 14:34:00,
2013-08-03 10:39:00,86.9,77.5,30.08,SW,225,2.0,4.0,74,0.00,,,0.00,meteohub,2013-08-03 14:39:00,
2013-08-03 10:44:00,86.7,77.0,30.08,North,0,2.0,4.0,73,0.00,,,0.00,meteohub,2013-08-03 14:44:00,
2013-08-03 10:49:00,86.7,77.0,30.08,North,0,2.0,4.0,73,0.00,,,0.00,meteohub,2013-08-03 14:49:00,
2013-08-03 10:54:00,87.3,76.6,30.08,SE,135,2.0,4.0,71,0.00,,,0.00,meteohub,2013-08-03 14:54:00,
2013-08-03 10:59:00,87.4,76.5,30.08,NE,45,3.0,4.0,70,0.00,,,0.00,meteohub,2013-08-03 14:59:00,
2013-08-03 11:04:00,87.8,76.3,30.08,NW,315,5.0,5.0,69,0.00,,,0.00,meteohub,2013-08-03 15:04:00,
2013-08-03 11:09:00,87.8,75.4,30.08,SW,225,2.0,4.0,67,0.00,,,0.00,meteohub,2013-08-03 15:09:00,
2013-08-03 11:15:00,87.6,74.8,30.07,West,270,4.0,5.0,66,0.00,,,0.00,meteohub,2013-08-03 15:15:00,
2013-08-03 11:20:00,88.0,75.2,30.08,West,270,2.0,6.0,66,0.00,,,0.00,meteohub,2013-08-03 15:20:00,
2013-08-03 11:26:00,88.3,75.9,30.08,SW,225,2.0,6.0,67,0.00,,,0.00,meteohub,2013-08-03 15:26:00,
2013-08-03 11:31:00,89.1,76.6,30.07,SW,225,2.0,4.0,67,0.00,,,0.00,meteohub,2013-08-03 15:31:00,
2013-08-03 11:36:00,89.2,75.4,30.07,SW,225,2.0,4.0,64,0.00,,,0.00,meteohub,2013-08-03 15:36:00,
2013-08-03 11:41:00,89.2,75.9,30.07,SW,225,4.0,6.0,65,0.00,,,0.00,meteohub,2013-08-03 15:41:00,
2013-08-03 11:46:00,89.4,76.1,30.08,SW,225,2.0,6.0,65,0.00,,,0.00,meteohub,2013-08-03 15:46:00,
2013-08-03 11:52:00,89.2,75.4,30.08,SSW,203,5.0,6.0,64,0.00,,,0.00,meteohub,2013-08-03 15:52:00,
2013-08-03 11:57:00,89.2,75.0,30.08,SW,225,4.0,5.0,63,0.00,,,0.00,meteohub,2013-08-03 15:57:00,
2013-08-03 12:02:00,89.2,75.0,30.08,North,0,2.0,5.0,63,0.00,,,0.00,meteohub,2013-08-03 16:02:00,
2013-08-03 12:07:00,90.1,75.4,30.08,SE,135,4.0,5.0,62,0.00,,,0.00,meteohub,2013-08-03 16:07:00,
2013-08-03 12:12:00,90.5,75.2,30.08,SE,135,4.0,6.0,61,0.00,,,0.00,meteohub,2013-08-03 16:12:00,
2013-08-03 12:17:00,90.7,74.8,30.07,East,90,4.0,6.0,60,0.00,,,0.00,meteohub,2013-08-03 16:17:00,
2013-08-03 12:22:00,91.0,74.7,30.08,South,180,2.0,6.0,59,0.00,,,0.00,meteohub,2013-08-03 16:22:00,
2013-08-03 12:27:00,90.3,73.6,30.08,WSW,248,1.0,6.0,58,0.00,,,0.00,meteohub,2013-08-03 16:27:00,
2013-08-03 12:32:00,90.7,74.8,30.07,SW,225,3.0,6.0,60,0.00,,,0.00,meteohub,2013-08-03 16:32:00,
2013-08-03 12:37:00,90.7,74.3,30.07,NW,315,2.0,6.0,59,0.00,,,0.00,meteohub,2013-08-03 16:37:00,
2013-08-03 12:42:00,90.7,73.9,30.07,NW,315,2.0,6.0,58,0.00,,,0.00,meteohub,2013-08-03 16:42:00,
2013-08-03 12:47:00,91.0,74.1,30.07,SW,225,2.0,6.0,58,0.00,,,0.00,meteohub,2013-08-03 16:47:00,
2013-08-03 12:52:00,90.7,72.9,30.07,West,270,4.0,5.0,56,0.00,,,0.00,meteohub,2013-08-03 16:52:00,
2013-08-03 12:57:00,90.0,73.8,30.07,South,180,4.0,5.0,59,0.00,,,0.00,meteohub,2013-08-03 16:57:00,
2013-08-03 13:03:00,90.3,75.0,30.07,NW,315,5.0,5.0,61,0.00,,,0.00,meteohub,2013-08-03 17:03:00,
2013-08-03 13:08:00,91.6,75.2,30.07,South,180,4.0,5.0,59,0.00,,,0.00,meteohub,2013-08-03 17:08:00,
2013-08-03 13:13:00,91.8,74.3,30.07,SSE,158,6.0,12.0,57,0.00,,,0.00,meteohub,2013-08-03 17:13:00,
2013-08-03 13:17:00,92.3,74.3,30.06,South,180,7.0,12.0,56,0.00,,,0.00,meteohub,2013-08-03 17:17:00,
2013-08-03 13:23:00,92.3,74.3,30.06,SW,225,3.0,12.0,56,0.00,,,0.00,meteohub,2013-08-03 17:23:00,
2013-08-03 13:28:00,92.5,73.9,30.06,West,270,4.0,8.0,55,0.00,,,0.00,meteohub,2013-08-03 17:28:00,
2013-08-03 13:33:00,92.3,73.2,30.06,SW,225,2.0,8.0,54,0.00,,,0.00,meteohub,2013-08-03 17:33:00,
2013-08-03 13:38:00,92.3,73.8,30.06,NW,315,4.0,8.0,55,0.00,,,0.00,meteohub,2013-08-03 17:38:00,
2013-08-03 13:43:00,92.7,74.1,30.06,SW,225,4.0,4.0,55,0.00,,,0.00,meteohub,2013-08-03 17:43:00,
2013-08-03 13:48:00,93.0,74.5,30.06,NW,315,5.0,5.0,55,0.00,,,0.00,meteohub,2013-08-03 17:48:00,
2013-08-03 13:53:00,93.0,72.9,30.06,West,270,4.0,7.0,52,0.00,,,0.00,meteohub,2013-08-03 17:53:00,
2013-08-03 13:58:00,92.8,73.8,30.06,SW,225,2.0,8.0,54,0.00,,,0.00,meteohub,2013-08-03 17:58:00,
2013-08-03 14:04:00,93.6,74.5,30.05,South,180,4.0,8.0,54,0.00,,,0.00,meteohub,2013-08-03 18:04:00,
2013-08-03 14:08:00,93.6,73.8,30.06,NW,315,5.0,8.0,53,0.00,,,0.00,meteohub,2013-08-03 18:08:00,
2013-08-03 14:14:00,92.8,74.8,30.05,South,180,3.0,11.0,56,0.00,,,0.00,meteohub,2013-08-03 18:14:00,
2013-08-03 14:19:00,93.0,75.0,30.06,West,270,6.0,11.0,56,0.00,,,0.00,meteohub,2013-08-03 18:19:00,
2013-08-03 14:24:00,90.1,73.4,30.07,NE,45,4.0,11.0,58,0.00,,,0.00,meteohub,2013-08-03 18:24:00,
2013-08-03 14:29:00,87.1,73.9,30.07,SW,225,7.0,11.0,65,0.00,,,0.00,meteohub,2013-08-03 18:29:00,
2013-08-03 14:34:00,84.7,73.9,30.07,NW,315,5.0,11.0,70,0.00,,,0.00,meteohub,2013-08-03 18:34:00,
2013-08-03 14:39:00,82.9,73.4,30.06,SW,225,6.0,11.0,73,0.00,,,0.00,meteohub,2013-08-03 18:39:00,
2013-08-03 14:44:00,81.0,73.0,30.07,NE,45,3.0,11.0,77,0.00,,,0.00,meteohub,2013-08-03 18:44:00,
2013-08-03 14:50:00,79.0,73.0,30.07,NW,315,3.0,10.0,82,0.01,,,0.01,meteohub,2013-08-03 18:50:00,
2013-08-03 14:55:00,78.3,73.4,30.06,NE,45,1.0,4.0,85,0.12,,,0.12,meteohub,2013-08-03 18:55:00,
2013-08-03 15:00:00,78.3,74.1,30.06,North,0,1.0,3.0,87,0.12,,,0.12,meteohub,2013-08-03 19:00:00,
2013-08-03 15:05:00,78.4,74.8,30.05,North,0,1.0,3.0,89,0.12,,,0.12,meteohub,2013-08-03 19:05:00,
2013-08-03 15:10:00,78.6,75.0,30.05,North,0,0.0,1.0,89,0.12,,,0.12,meteohub,2013-08-03 19:10:00,
2013-08-03 15:15:00,79.0,75.4,30.05,North,0,0.0,1.0,89,0.12,,,0.12,meteohub,2013-08-03 19:15:00,
2013-08-03 15:20:00,79.2,75.6,30.04,South,180,0.0,1.0,89,0.12,,,0.12,meteohub,2013-08-03 19:20:00,
2013-08-03 15:25:00,79.7,76.5,30.04,South,180,2.0,2.0,90,0.12,,,0.12,meteohub,2013-08-03 19:25:00,
2013-08-03 15:30:00,80.4,77.2,30.04,South,180,2.0,2.0,90,0.12,,,0.12,meteohub,2013-08-03 19:30:00,
2013-08-03 15:35:00,82.0,78.8,30.04,West,270,2.0,3.0,90,0.12,,,0.12,meteohub,2013-08-03 19:35:00,
2013-08-03 15:40:00,83.3,79.0,30.04,SE,135,7.0,7.0,87,0.12,,,0.12,meteohub,2013-08-03 19:40:00,
2013-08-03 15:46:00,83.8,78.1,30.04,SE,135,2.0,7.0,83,0.08,,,0.13,meteohub,2013-08-03 19:46:00,
2013-08-03 15:51:00,83.8,77.7,30.03,NW,315,2.0,7.0,82,0.04,,,0.13,meteohub,2013-08-03 19:51:00,
2013-08-03 15:56:00,84.2,78.1,30.03,SW,225,0.0,7.0,82,0.01,,,0.13,meteohub,2013-08-03 19:56:00,
2013-08-03 16:01:00,85.5,79.0,30.03,SW,225,2.0,3.0,81,0.01,,,0.13,meteohub,2013-08-03 20:01:00,
2013-08-03 16:06:00,86.5,78.4,30.03,SW,225,3.0,3.0,77,0.01,,,0.13,meteohub,2013-08-03 20:06:00,
2013-08-03 16:11:00,87.6,78.6,30.03,SW,225,3.0,4.0,75,0.01,,,0.13,meteohub,2013-08-03 20:11:00,
2013-08-03 16:16:00,88.2,77.2,30.02,SW,225,5.0,5.0,70,0.01,,,0.13,meteohub,2013-08-03 20:16:00,
2013-08-03 16:21:00,88.0,76.1,30.03,SW,225,2.0,7.0,68,0.01,,,0.13,meteohub,2013-08-03 20:21:00,
2013-08-03 16:26:00,88.0,75.6,30.04,SW,225,4.0,7.0,67,0.01,,,0.13,meteohub,2013-08-03 20:26:00,
2013-08-03 16:31:00,87.6,76.1,30.04,SW,225,0.0,7.0,69,0.01,,,0.13,meteohub,2013-08-03 20:31:00,
2013-08-03 16:36:00,87.6,76.6,30.04,South,180,2.0,4.0,70,0.01,,,0.13,meteohub,2013-08-03 20:36:00,
2013-08-03 16:41:00,87.3,75.9,30.04,West,270,0.0,6.0,69,0.00,,,0.13,meteohub,2013-08-03 20:41:00,
2013-08-03 16:47:00,87.4,76.5,30.04,SE,135,2.0,6.0,70,0.00,,,0.13,meteohub,2013-08-03 20:47:00,
2013-08-03 16:52:00,87.4,76.8,30.04,South,180,2.0,4.0,71,0.00,,,0.13,meteohub,2013-08-03 20:52:00,
2013-08-03 16:56:00,87.4,76.5,30.04,SE,135,2.0,4.0,70,0.00,,,0.13,meteohub,2013-08-03 20:56:00,
2013-08-03 17:02:00,87.4,76.5,30.04,West,270,2.0,4.0,70,0.00,,,0.13,meteohub,2013-08-03 21:02:00,
2013-08-03 17:07:00,87.4,76.5,30.04,SE,135,2.0,4.0,70,0.00,,,0.13,meteohub,2013-08-03 21:07:00,
2013-08-03 17:12:00,87.6,76.6,30.04,SE,135,2.0,4.0,70,0.00,,,0.13,meteohub,2013-08-03 21:12:00,
2013-08-03 17:17:00,87.8,75.4,30.04,West,270,0.0,3.0,67,0.00,,,0.13,meteohub,2013-08-03 21:17:00,
2013-08-03 17:22:00,87.8,75.4,30.03,West,270,1.0,3.0,67,0.00,,,0.13,meteohub,2013-08-03 21:22:00,
2013-08-03 17:27:00,87.8,75.9,30.04,West,270,2.0,3.0,68,0.00,,,0.13,meteohub,2013-08-03 21:27:00,
2013-08-03 17:32:00,87.8,75.9,30.04,SW,225,0.0,2.0,68,0.00,,,0.13,meteohub,2013-08-03 21:32:00,
2013-08-03 17:37:00,87.8,75.9,30.04,SW,225,2.0,2.0,68,0.00,,,0.13,meteohub,2013-08-03 21:37:00,
2013-08-03 17:42:00,87.4,75.2,30.05,SW,225,8.0,8.0,67,0.00,,,0.13,meteohub,2013-08-03 21:42:00,
2013-08-03 17:48:00,85.8,72.7,30.04,SW,225,8.0,8.0,65,0.00,,,0.13,meteohub,2013-08-03 21:48:00,
2013-08-03 17:53:00,83.8,72.5,30.05,SSE,158,8.0,8.0,69,0.00,,,0.13,meteohub,2013-08-03 21:53:00,
2013-08-03 17:58:00,82.8,73.2,30.05,SW,225,9.0,9.0,73,0.00,,,0.13,meteohub,2013-08-03 21:58:00,
2013-08-03 18:03:00,80.6,72.7,30.05,SW,225,9.0,15.0,77,0.00,,,0.13,meteohub,2013-08-03 22:03:00,
2013-08-03 18:08:00,79.7,74.1,30.06,SW,225,2.0,15.0,83,0.01,,,0.14,meteohub,2013-08-03 22:08:00,
2013-08-03 18:13:00,79.2,74.7,30.05,SSW,203,4.0,15.0,86,0.01,,,0.14,meteohub,2013-08-03 22:13:00,
2013-08-03 18:18:00,78.8,75.2,30.05,SW,225,11.0,15.0,89,0.01,,,0.14,meteohub,2013-08-03 22:18:00,
2013-08-03 18:23:00,78.1,75.6,30.05,West,270,8.0,11.0,92,0.08,,,0.21,meteohub,2013-08-03 22:23:00,
2013-08-03 18:28:00,77.5,75.4,30.06,South,180,8.0,11.0,93,0.13,,,0.26,meteohub,2013-08-03 22:28:00,
2013-08-03 18:34:00,77.4,75.6,30.05,SE,135,8.0,11.0,94,0.15,,,0.28,meteohub,2013-08-03 22:34:00,
2013-08-03 18:39:00,77.4,75.6,30.05,SW,225,6.0,11.0,94,0.15,,,0.28,meteohub,2013-08-03 22:39:00,
2013-08-03 18:44:00,77.2,75.4,30.06,SW,225,8.0,11.0,94,0.15,,,0.28,meteohub,2013-08-03 22:44:00,
2013-08-03 18:49:00,77.2,75.4,30.08,NW,315,5.0,11.0,94,0.15,,,0.28,meteohub,2013-08-03 22:49:00,
2013-08-03 18:54:00,77.2,75.4,30.08,South,180,2.0,10.0,94,0.15,,,0.28,meteohub,2013-08-03 22:54:00,
2013-08-03 18:59:00,77.2,75.4,30.07,South,180,4.0,8.0,94,0.17,,,0.30,meteohub,2013-08-03 22:59:00,
2013-08-03 19:04:00,77.2,75.6,30.07,SE,135,8.0,8.0,95,0.19,,,0.33,meteohub,2013-08-03 23:04:00,
2013-08-03 19:09:00,77.0,75.4,30.06,SE,135,8.0,8.0,95,0.21,,,0.35,meteohub,2013-08-03 23:09:00,
2013-08-03 19:14:00,76.8,75.6,30.06,SE,135,4.0,8.0,96,0.21,,,0.35,meteohub,2013-08-03 23:14:00,
2013-08-03 19:20:00,76.6,75.4,30.06,SE,135,4.0,13.0,96,0.13,,,0.35,meteohub,2013-08-03 23:20:00,
2013-08-03 19:25:00,76.6,75.4,30.06,East,90,4.0,13.0,96,0.08,,,0.35,meteohub,2013-08-03 23:25:00,
2013-08-03 19:30:00,76.5,75.2,30.07,South,180,2.0,8.0,96,0.07,,,0.35,meteohub,2013-08-03 23:30:00,
2013-08-03 19:35:00,76.5,75.2,30.07,South,180,4.0,8.0,96,0.07,,,0.35,meteohub,2013-08-03 23:35:00,
2013-08-03 19:40:00,76.1,74.8,30.08,South,180,2.0,6.0,96,0.07,,,0.35,meteohub,2013-08-03 23:40:00,
2013-08-03 19:45:00,76.1,74.5,30.08,SE,135,4.0,7.0,95,0.07,,,0.35,meteohub,2013-08-03 23:45:00,
2013-08-03 19:50:00,76.1,74.5,30.09,SW,225,0.0,7.0,95,0.07,,,0.35,meteohub,2013-08-03 23:50:00,
2013-08-03 19:55:00,76.1,74.8,30.09,South,180,2.0,7.0,96,0.05,,,0.35,meteohub,2013-08-03 23:55:00,
2013-08-03 20:00:00,76.1,74.8,30.09,SW,225,4.0,4.0,96,0.02,,,0.35,meteohub,2013-08-04 00:00:00,
2013-08-03 20:05:00,76.1,74.8,30.08,South,180,3.0,6.0,96,0.01,,,0.37,meteohub,2013-08-04 00:05:00,
2013-08-03 20:11:00,75.9,74.7,30.08,SE,135,4.0,6.0,96,0.01,,,0.37,meteohub,2013-08-04 00:11:00,
2013-08-03 20:16:00,75.9,74.7,30.08,SE,135,4.0,7.0,96,0.01,,,0.37,meteohub,2013-08-04 00:16:00,
2013-08-03 20:22:00,75.9,74.7,30.09,South,180,1.0,7.0,96,0.01,,,0.37,meteohub,2013-08-04 00:22:00,
2013-08-03 20:27:00,75.7,74.5,30.09,SW,225,2.0,5.0,96,0.01,,,0.37,meteohub,2013-08-04 00:27:00,
2013-08-03 20:31:00,75.7,74.5,30.09,SE,135,4.0,5.0,96,0.01,,,0.37,meteohub,2013-08-04 00:31:00,
2013-08-03 20:37:00,75.6,74.3,30.09,SW,225,2.0,6.0,96,0.01,,,0.37,meteohub,2013-08-04 00:37:00,
2013-08-03 20:41:00,75.6,74.3,30.09,South,180,4.0,6.0,96,0.01,,,0.37,meteohub,2013-08-04 00:41:00,
2013-08-03 20:47:00,75.6,74.3,30.09,SE,135,0.0,4.0,96,0.01,,,0.37,meteohub,2013-08-04 00:47:00,
2013-08-03 20:52:00,75.6,74.3,30.09,South,180,1.0,4.0,96,0.01,,,0.37,meteohub,2013-08-04 00:52:00,
2013-08-03 20:57:00,75.6,74.3,30.09,South,180,3.0,4.0,96,0.01,,,0.37,meteohub,2013-08-04 00:57:00,
2013-08-03 21:03:00,75.6,74.3,30.09,SW,225,3.0,4.0,96,0.01,,,0.37,meteohub,2013-08-04 01:03:00,
2013-08-03 21:08:00,75.6,74.3,30.09,SW,225,2.0,4.0,96,0.00,,,0.37,meteohub,2013-08-04 01:08:00,
2013-08-03 21:13:00,75.6,74.3,30.09,SW,225,2.0,4.0,96,0.00,,,0.37,meteohub,2013-08-04 01:13:00,
2013-08-03 21:18:00,75.6,74.3,30.09,South,180,2.0,3.0,96,0.00,,,0.37,meteohub,2013-08-04 01:18:00,
2013-08-03 21:23:00,75.6,74.3,30.09,SW,225,1.0,3.0,96,0.00,,,0.37,meteohub,2013-08-04 01:23:00,
2013-08-03 21:28:00,75.6,74.3,30.09,South,180,1.0,3.0,96,0.00,,,0.37,meteohub,2013-08-04 01:28:00,
2013-08-03 21:33:00,75.6,74.3,30.09,SW,225,0.0,3.0,96,0.00,,,0.37,meteohub,2013-08-04 01:33:00,
2013-08-03 21:39:00,75.6,74.3,30.09,South,180,2.0,4.0,96,0.00,,,0.37,meteohub,2013-08-04 01:39:00,
2013-08-03 21:44:00,75.6,74.3,30.09,South,180,2.0,4.0,96,0.00,,,0.37,meteohub,2013-08-04 01:44:00,
2013-08-03 21:49:00,75.6,74.3,30.09,South,180,0.0,4.0,96,0.00,,,0.37,meteohub,2013-08-04 01:49:00,
2013-08-03 21:54:00,75.6,74.7,30.09,SE,135,0.0,4.0,97,0.00,,,0.37,meteohub,2013-08-04 01:54:00,
2013-08-03 21:59:00,75.7,74.8,30.08,SE,135,0.0,3.0,97,0.00,,,0.37,meteohub,2013-08-04 01:59:00,
2013-08-03 22:04:00,75.7,74.8,30.08,SSE,158,2.0,2.0,97,0.00,,,0.37,meteohub,2013-08-04 02:04:00,
2013-08-03 22:09:00,75.7,74.8,30.09,SW,225,1.0,2.0,97,0.00,,,0.37,meteohub,2013-08-04 02:09:00,
2013-08-03 22:14:00,75.7,74.8,30.08,SW,225,0.0,3.0,97,0.00,,,0.37,meteohub,2013-08-04 02:14:00,
2013-08-03 22:19:00,75.7,74.8,30.08,SW,225,1.0,3.0,97,0.00,,,0.37,meteohub,2013-08-04 02:19:00,
2013-08-03 22:24:00,75.7,74.8,30.08,SW,225,0.0,3.0,97,0.00,,,0.37,meteohub,2013-08-04 02:24:00,
2013-08-03 22:29:00,75.7,74.8,30.09,SW,225,0.0,2.0,97,0.00,,,0.37,meteohub,2013-08-04 02:29:00,
2013-08-03 22:34:00,75.6,74.7,30.09,NE,45,0.0,2.0,97,0.00,,,0.37,meteohub,2013-08-04 02:34:00,
2013-08-03 22:39:00,75.6,74.7,30.09,South,180,0.0,2.0,97,0.00,,,0.37,meteohub,2013-08-04 02:39:00,
2013-08-03 22:44:00,75.6,74.7,30.10,South,180,0.0,2.0,97,0.00,,,0.37,meteohub,2013-08-04 02:44:00,
2013-08-03 22:50:00,75.7,74.8,30.10,SW,225,0.0,2.0,97,0.00,,,0.37,meteohub,2013-08-04 02:50:00,
2013-08-03 22:55:00,75.7,74.8,30.10,SE,135,0.0,0.0,97,0.00,,,0.37,meteohub,2013-08-04 02:55:00,
2013-08-03 23:00:00,75.7,74.8,30.10,SE,135,0.0,0.0,97,0.00,,,0.37,meteohub,2013-08-04 03:00:00,
2013-08-03 23:05:00,75.7,74.8,30.10,SE,135,0.0,0.0,97,0.00,,,0.37,meteohub,2013-08-04 03:05:00,
2013-08-03 23:10:00,75.7,74.8,30.11,SW,225,2.0,3.0,97,0.00,,,0.37,meteohub,2013-08-04 03:10:00,
2013-08-03 23:15:00,75.7,74.8,30.10,South,180,2.0,3.0,97,0.00,,,0.37,meteohub,2013-08-04 03:15:00,
2013-08-03 23:21:00,75.7,74.8,30.11,SE,135,0.0,3.0,97,0.00,,,0.37,meteohub,2013-08-04 03:21:00,
2013-08-03 23:26:00,75.7,74.8,30.10,SW,225,1.0,3.0,97,0.00,,,0.37,meteohub,2013-08-04 03:26:00,
2013-08-03 23:31:00,75.7,74.8,30.10,South,180,0.0,3.0,97,0.00,,,0.37,meteohub,2013-08-04 03:31:00,
2013-08-03 23:36:00,75.7,74.8,30.10,SW,225,0.0,2.0,97,0.00,,,0.37,meteohub,2013-08-04 03:36:00,
2013-08-03 23:41:00,75.7,74.8,30.10,South,180,0.0,2.0,97,0.00,,,0.37,meteohub,2013-08-04 03:41:00,
2013-08-03 23:46:00,75.7,74.8,30.10,South,180,0.0,0.0,97,0.00,,,0.37,meteohub,2013-08-04 03:46:00,
2013-08-03 23:51:00,75.7,74.8,30.09,SE,135,0.0,0.0,97,0.00,,,0.37,meteohub,2013-08-04 03:51:00,
2013-08-03 23:56:00,75.7,74.8,30.09,SE,135,0.0,2.0,97,0.00,,,0.37,meteohub,2013-08-04 03:56:00,